This is the latest recevied weather packets stored in our database for station/object Rana. If no packets are shown the sender has not sent any weather packets the latest 1 day(s).
| Time | Temp. | Humidity | Pressure | Rain* | Wind** | Luminosity | Snow |
|---|---|---|---|---|---|---|---|
| 1777991411 | 20° C | 52% | - | - | 8.05 m/s, 348° | - | - |
| 1777991110 | 18.89° C | 52% | - | - | 8.05 m/s, 348° | - | - |
| 1777990812 | 18.89° C | 52% | - | - | 8.94 m/s, 349° | - | - |
| 1777990511 | 18.89° C | 50% | - | - | 8.05 m/s, 348° | - | - |
| 1777990211 | 20° C | 47% | - | - | 7.15 m/s, 1° | - | - |
| 1777989911 | 20° C | 47% | - | - | 5.81 m/s, 354° | - | - |
| 1777989610 | 20° C | 46% | - | - | 5.81 m/s, 4° | - | - |
| 1777989310 | 20° C | 45% | - | - | 5.81 m/s, 7° | - | - |
| 1777989010 | 21.11° C | 43% | - | - | 4.92 m/s, 13° | - | - |
| 1777988710 | 21.11° C | 42% | - | - | 1.79 m/s, 46° | - | - |
| 1777988409 | 22.22° C | 39% | - | - | 3.13 m/s, 66° | - | - |
| 1777988110 | 22.22° C | 39% | - | - | 1.79 m/s, 99° | - | - |
| 1777987811 | 22.78° C | 38% | - | - | 0 m/s | - | - |
| 1777987510 | 22.78° C | 37% | - | - | 1.79 m/s, 85° | - | - |
| 1777987214 | 22.78° C | 38% | - | - | 0 m/s | - | - |
| 1777986911 | 22.78° C | 38% | - | - | 0.89 m/s, 103° | - | - |
| 1777986611 | 22.22° C | 39% | - | - | 0.89 m/s, 143° | - | - |
| 1777986310 | 21.11° C | 39% | - | - | 3.13 m/s, 133° | - | - |
| 1777986012 | 21.11° C | 40% | - | - | 3.13 m/s, 95° | - | - |
| 1777985710 | 22.22° C | 40% | - | - | 3.13 m/s, 79° | - | - |
| 1777985410 | 22.78° C | 38% | - | - | 1.79 m/s, 107° | - | - |
| 1777985110 | 22.22° C | 39% | - | - | 0.89 m/s, 82° | - | - |
| 1777984810 | 22.22° C | 39% | - | - | 1.79 m/s, 91° | - | - |
| 1777984511 | 22.22° C | 39% | - | - | 1.79 m/s, 106° | - | - |
| 1777984210 | 22.22° C | 40% | - | - | 1.79 m/s, 56° | - | - |
* Rain since midnight (hover to see other rain measurements)
** Current wind speed in m/s (hover to see current wind gust speed)